"Sample Date","Sample Time","Sample Value","Units","Flow Rate","Number Channels","Micron Size 0","Counts/Channel 0","Micron Size 1","Counts/Channel 1","Micron Size 2","Counts/Channel 2","Micron Size 3","Counts/Channel 3","Micron Size 4","Counts/Channel 4","Micron Size 5","Counts/Channel 5","Micron Size 6","Counts/Channel 6","Micron Size 7","Counts/Channel 7","Micron Size 8","Counts/Channel 8","Micron Size 9","Counts/Channel 9","Micron Size 10","Counts/Channel 10","Micron Size 11","Counts/Channel 11","Micron Size 12","Counts/Channel 12","Micron Size 13","Counts/Channel 13","Micron Size 14","Counts/Channel 14","Micron Size 15","Counts/Channel 15","Micron Size 16","Counts/Channel 16","Micron Size 17","Counts/Channel 17","Micron Size 18","Counts/Channel 18","Micron Size 19","Counts/Channel 19","Micron Size 20","Counts/Channel 20","Micron Size 21","Counts/Channel 21","Micron Size 22","Counts/Channel 22","Micron Size 23","Counts/Channel 23","Micron Size 24","Counts/Channel 24","Micron Size 25","Counts/Channel 25","Micron Size 26","Counts/Channel 26","Micron Size 27","Counts/Channel 27","Micron Size 28","Counts/Channel 28","Micron Size 29","Counts/Channel 29","Micron Size 30","Counts/Channel 30","Micron Size 31","Counts/Channel 31"
"05/06/08","20:00:01",150.000,"cc",28289.356,6,0.100,126.000,0.200,23.000,0.300,1.000,0.500,0,1.000,0,5.000,0
"05/06/08","20:00:07",144.000,"cc",28266.285,6,0.100,120.000,0.200,23.000,0.300,0,0.500,1.000,1.000,0,5.000,0
"05/06/08","20:00:13",162.000,"cc",28320.400,6,0.100,141.000,0.200,19.000,0.300,2.000,0.500,0,1.000,0,5.000,0
"05/06/08","20:00:19",151.000,"cc",28376.459,6,0.100,119.000,0.200,30.000,0.300,1.000,0.500,1.000,1.000,0,5.000,0
"05/06/08","20:00:25",166.000,"cc",28368.926,6,0.100,127.000,0.200,37.000,0.300,1.000,0.500,0,1.000,1.000,5.000,0
"05/06/08","20:00:31",148.000,"cc",28265.826,6,0.100,131.000,0.200,16.000,0.300,1.000,0.500,0,1.000,0,5.000,0
"05/06/08","20:00:37",164.000,"cc",28311.471,6,0.100,133.000,0.200,30.000,0.300,1.000,0.500,0,1.000,0,5.000,0
"05/06/08","20:00:43",176.000,"cc",28294.742,6,0.100,148.000,0.200,28.000,0.300,0,0.500,0,1.000,0,5.000,0
"05/06/08","20:00:49",137.000,"cc",28348.525,6,0.100,113.000,0.200,21.000,0.300,3.000,0.500,0,1.000,0,5.000,0
"05/06/08","20:00:55",181.000,"cc",28331.859,6,0.100,155.000,0.200,26.000,0.300,0,0.500,0,1.000,0,5.000,0
"05/06/08","20:01:01",141.000,"cc",28309.900,6,0.100,127.000,0.200,14.000,0.300,0,0.500,0,1.000,0,5.000,0
"05/06/08","20:01:07",158.000,"cc",28269.604,6,0.100,133.000,0.200,25.000,0.300,0,0.500,0,1.000,0,5.000,0
"05/06/08","20:01:13",154.000,"cc",28307.525,6,0.100,137.000,0.200,17.000,0.300,0,0.500,0,1.000,0,5.000,0
"05/06/08","20:01:19",144.000,"cc",28340.387,6,0.100,126.000,0.200,18.000,0.300,0,0.500,0,1.000,0,5.000,0
"05/06/08","20:01:25",153.000,"cc",28315.377,6,0.100,119.000,0.200,32.000,0.300,2.000,0.500,0,1.000,0,5.000,0
"05/06/08","20:01:31",5033.000,"cc",28087.182,6,0.100,3888.000,0.200,643.000,0.300,212.000,0.500,188.000,1.000,76.000,5.000,26.000
"05/06/08","20:01:37",1223.000,"cc",26922.320,6,0.100,797.000,0.200,257.000,0.300,78.000,0.500,59.000,1.000,29.000,5.000,3.000
"05/06/08","20:01:43",315.000,"cc",27204.582,6,0.100,235.000,0.200,57.000,0.300,8.000,0.500,11.000,1.000,4.000,5.000,0
"05/06/08","20:01:49",159.000,"cc",27348.215,6,0.100,131.000,0.200,23.000,0.300,1.000,0.500,3.000,1.000,1.000,5.000,0
"05/06/08","20:01:55",167.000,"cc",27209.354,6,0.100,140.000,0.200,21.000,0.300,2.000,0.500,3.000,1.000,1.000,5.000,0
"05/06/08","20:02:01",163.000,"cc",27163.572,6,0.100,131.000,0.200,29.000,0.300,0,0.500,1.000,1.000,2.000,5.000,0
"05/06/08","20:02:07",148.000,"cc",27070.887,6,0.100,117.000,0.200,29.000,0.300,1.000,0.500,1.000,1.000,0,5.000,0
"05/06/08","20:02:13",175.000,"cc",27141.871,6,0.100,149.000,0.200,23.000,0.300,0,0.500,2.000,1.000,1.000,5.000,0
"05/06/08","20:02:19",177.000,"cc",27229.065,6,0.100,149.000,0.200,27.000,0.300,0,0.500,1.000,1.000,0,5.000,0
"05/06/08","20:02:25",161.000,"cc",27388.162,6,0.100,140.000,0.200,20.000,0.300,1.000,0.500,0,1.000,0,5.000,0
"05/06/08","20:02:31",148.000,"cc",27615.033,6,0.100,136.000,0.200,7.000,0.300,2.000,0.500,3.000,1.000,0,5.000,0
"05/06/08","20:02:37",170.000,"cc",27966.285,6,0.100,144.000,0.200,26.000,0.300,0,0.500,0,1.000,0,5.000,0
"05/06/08","20:02:43",157.000,"cc",28459.770,6,0.100,131.000,0.200,23.000,0.300,3.000,0.500,0,1.000,0,5.000,0
"05/06/08","20:02:49",184.000,"cc",28693.316,6,0.100,152.000,0.200,30.000,0.300,2.000,0.500,0,1.000,0,5.000,0
"05/06/08","20:02:55",159.000,"cc",28660.752,6,0.100,128.000,0.200,31.000,0.300,0,0.500,0,1.000,0,5.000,0
"05/06/08","20:03:01",135.000,"cc",28653.066,6,0.100,110.000,0.200,21.000,0.300,4.000,0.500,0,1.000,0,5.000,0
"05/06/08","20:03:07",160.000,"cc",28636.268,6,0.100,136.000,0.200,22.000,0.300,1.000,0.500,1.000,1.000,0,5.000,0
"05/06/08","20:03:13",156.000,"cc",28666.225,6,0.100,131.000,0.200,24.000,0.300,1.000,0.500,0,1.000,0,5.000,0
"05/06/08","20:03:19",165.000,"cc",28629.988,6,0.100,131.000,0.200,32.000,0.300,2.000,0.500,0,1.000,0,5.000,0
"05/06/08","20:03:25",162.000,"cc",28596.121,6,0.100,128.000,0.200,31.000,0.300,1.000,0.500,2.000,1.000,0,5.000,0
"05/06/08","20:03:31",166.000,"cc",28607.135,6,0.100,144.000,0.200,17.000,0.300,3.000,0.500,2.000,1.000,0,5.000,0
"05/06/08","20:03:37",180.000,"cc",28632.164,6,0.100,151.000,0.200,25.000,0.300,2.000,0.500,1.000,1.000,1.000,5.000,0
"05/06/08","20:03:43",167.000,"cc",28602.234,6,0.100,138.000,0.200,29.000,0.300,0,0.500,0,1.000,0,5.000,0
"05/06/08","20:03:49",180.000,"cc",28567.875,6,0.100,151.000,0.200,27.000,0.300,2.000,0.500,0,1.000,0,5.000,0
"05/06/08","20:03:55",148.000,"cc",28614.432,6,0.100,122.000,0.200,25.000,0.300,1.000,0.500,0,1.000,0,5.000,0
"05/06/08","20:04:01",149.000,"cc",28629.223,6,0.100,124.000,0.200,24.000,0.300,1.000,0.500,0,1.000,0,5.000,0
"05/06/08","20:04:07",131.000,"cc",28642.734,6,0.100,105.000,0.200,26.000,0.300,0,0.500,0,1.000,0,5.000,0
"05/06/08","20:04:13",135.000,"cc",28653.705,6,0.100,109.000,0.200,24.000,0.300,2.000,0.500,0,1.000,0,5.000,0
"05/06/08","20:04:19",143.000,"cc",28595.465,6,0.100,116.000,0.200,26.000,0.300,0,0.500,1.000,1.000,0,5.000,0
"05/06/08","20:04:25",191.000,"cc",28606.658,6,0.100,155.000,0.200,35.000,0.300,1.000,0.500,0,1.000,0,5.000,0
"05/06/08","20:04:31",140.000,"cc",28562.201,6,0.100,108.000,0.200,32.000,0.300,0,0.500,0,1.000,0,5.000,0
"05/06/08","20:04:37",154.000,"cc",28581.227,6,0.100,130.000,0.200,22.000,0.300,2.000,0.500,0,1.000,0,5.000,0
"05/06/08","20:04:43",159.000,"cc",28533.658,6,0.100,127.000,0.200,30.000,0.300,1.000,0.500,1.000,1.000,0,5.000,0
"05/06/08","20:04:49",141.000,"cc",28621.772,6,0.100,116.000,0.200,23.000,0.300,2.000,0.500,0,1.000,0,5.000,0
"05/06/08","20:04:55",150.000,"cc",28500.369,6,0.100,128.000,0.200,21.000,0.300,1.000,0.500,0,1.000,0,5.000,0
"05/06/08","20:05:01",137.000,"cc",28519.080,6,0.100,117.000,0.200,18.000,0.300,1.000,0.500,1.000,1.000,0,5.000,0
"05/06/08","20:05:07",180.000,"cc",28560.098,6,0.100,151.000,0.200,27.000,0.300,2.000,0.500,0,1.000,0,5.000,0
"05/06/08","20:05:13",136.000,"cc",28650.740,6,0.100,116.000,0.200,19.000,0.300,1.000,0.500,0,1.000,0,5.000,0
"05/06/08","20:05:19",155.000,"cc",28623.232,6,0.100,127.000,0.200,27.000,0.300,1.000,0.500,0,1.000,0,5.000,0
"05/06/08","20:05:25",174.000,"cc",28645.516,6,0.100,140.000,0.200,33.000,0.300,0,0.500,1.000,1.000,0,5.000,0
"05/06/08","20:05:31",156.000,"cc",28575.268,6,0.100,119.000,0.200,33.000,0.300,3.000,0.500,1.000,1.000,0,5.000,0
"05/06/08","20:05:37",167.000,"cc",28604.287,6,0.100,143.000,0.200,23.000,0.300,1.000,0.500,0,1.000,0,5.000,0
"05/06/08","20:05:43",141.000,"cc",28603.072,6,0.100,117.000,0.200,24.000,0.300,0,0.500,0,1.000,0,5.000,0
"05/06/08","20:05:49",180.000,"cc",28588.678,6,0.100,143.000,0.200,34.000,0.300,2.000,0.500,1.000,1.000,0,5.000,0
"05/06/08","20:05:55",152.000,"cc",28591.918,6,0.100,126.000,0.200,25.000,0.300,0,0.500,1.000,1.000,0,5.000,0
"05/06/08","20:06:01",154.000,"cc",28632.320,6,0.100,121.000,0.200,31.000,0.300,1.000,0.500,1.000,1.000,0,5.000,0
"05/06/08","20:06:07",169.000,"cc",28609.217,6,0.100,142.000,0.200,27.000,0.300,0,0.500,0,1.000,0,5.000,0
"05/06/08","20:06:13",144.000,"cc",28562.686,6,0.100,122.000,0.200,19.000,0.300,2.000,0.500,1.000,1.000,0,5.000,0
"05/06/08","20:06:19",162.000,"cc",28541.371,6,0.100,132.000,0.200,30.000,0.300,0,0.500,0,1.000,0,5.000,0
"05/06/08","20:06:25",155.000,"cc",28593.217,6,0.100,128.000,0.200,27.000,0.300,0,0.500,0,1.000,0,5.000,0
"05/06/08","20:06:31",154.000,"cc",28570.844,6,0.100,120.000,0.200,34.000,0.300,0,0.500,0,1.000,0,5.000,0
"05/06/08","20:06:37",153.000,"cc",28513.807,6,0.100,115.000,0.200,37.000,0.300,1.000,0.500,0,1.000,0,5.000,0
"05/06/08","20:06:43",140.000,"cc",28363.984,6,0.100,115.000,0.200,23.000,0.300,2.000,0.500,0,1.000,0,5.000,0
"05/06/08","20:06:49",127.000,"cc",28334.033,6,0.100,104.000,0.200,23.000,0.300,0,0.500,0,1.000,0,5.000,0
"05/06/08","20:06:55",138.000,"cc",28275.609,6,0.100,109.000,0.200,27.000,0.300,2.000,0.500,0,1.000,0,5.000,0
"05/06/08","20:07:01",144.000,"cc",28305.180,6,0.100,117.000,0.200,26.000,0.300,1.000,0.500,0,1.000,0,5.000,0
"05/06/08","20:07:07",121.000,"cc",28321.199,6,0.100,96.000,0.200,24.000,0.300,1.000,0.500,0,1.000,0,5.000,0
"05/06/08","20:07:13",145.000,"cc",28323.834,6,0.100,119.000,0.200,25.000,0.300,0,0.500,1.000,1.000,0,5.000,0
"05/06/08","20:07:19",133.000,"cc",28346.436,6,0.100,99.000,0.200,29.000,0.300,5.000,0.500,0,1.000,0,5.000,0
"05/06/08","20:07:25",163.000,"cc",28356.590,6,0.100,132.000,0.200,30.000,0.300,1.000,0.500,0,1.000,0,5.000,0
"05/06/08","20:07:31",142.000,"cc",28355.400,6,0.100,107.000,0.200,35.000,0.300,0,0.500,0,1.000,0,5.000,0
"05/06/08","20:07:37",148.000,"cc",28246.606,6,0.100,119.000,0.200,26.000,0.300,1.000,0.500,1.000,1.000,1.000,5.000,0
"05/06/08","20:07:43",137.000,"cc",28302.664,6,0.100,108.000,0.200,27.000,0.300,1.000,0.500,1.000,1.000,0,5.000,0
"05/06/08","20:07:49",124.000,"cc",28328.270,6,0.100,100.000,0.200,23.000,0.300,1.000,0.500,0,1.000,0,5.000,0
"05/06/08","20:07:55",120.000,"cc",28283.629,6,0.100,102.000,0.200,17.000,0.300,1.000,0.500,0,1.000,0,5.000,0
"05/06/08","20:08:01",129.000,"cc",28325.840,6,0.100,97.000,0.200,31.000,0.300,1.000,0.500,0,1.000,0,5.000,0
"05/06/08","20:08:07",124.000,"cc",28336.967,6,0.100,99.000,0.200,25.000,0.300,0,0.500,0,1.000,0,5.000,0
"05/06/08","20:08:13",137.000,"cc",28292.729,6,0.100,112.000,0.200,23.000,0.300,2.000,0.500,0,1.000,0,5.000,0
"05/06/08","20:08:19",119.000,"cc",28339.369,6,0.100,88.000,0.200,31.000,0.300,0,0.500,0,1.000,0,5.000,0
"05/06/08","20:08:25",148.000,"cc",28362.680,6,0.100,119.000,0.200,27.000,0.300,1.000,0.500,0,1.000,1.000,5.000,0
"05/06/08","20:08:31",129.000,"cc",28226.727,6,0.100,98.000,0.200,28.000,0.300,3.000,0.500,0,1.000,0,5.000,0
"05/06/08","20:08:37",136.000,"cc",28293.902,6,0.100,108.000,0.200,27.000,0.300,1.000,0.500,0,1.000,0,5.000,0
"05/06/08","20:08:43",130.000,"cc",28376.186,6,0.100,112.000,0.200,18.000,0.300,0,0.500,0,1.000,0,5.000,0
"05/06/08","20:08:49",134.000,"cc",28346.656,6,0.100,106.000,0.200,27.000,0.300,1.000,0.500,0,1.000,0,5.000,0
"05/06/08","20:08:55",140.000,"cc",28278.406,6,0.100,115.000,0.200,24.000,0.300,1.000,0.500,0,1.000,0,5.000,0
"05/06/08","20:09:01",126.000,"cc",28307.828,6,0.100,96.000,0.200,28.000,0.300,1.000,0.500,1.000,1.000,0,5.000,0
"05/06/08","20:09:07",116.000,"cc",28302.877,6,0.100,92.000,0.200,23.000,0.300,0,0.500,1.000,1.000,0,5.000,0
"05/06/08","20:09:13",159.000,"cc",28348.531,6,0.100,123.000,0.200,34.000,0.300,1.000,0.500,0,1.000,1.000,5.000,0
"05/06/08","20:09:19",137.000,"cc",28329.482,6,0.100,114.000,0.200,22.000,0.300,1.000,0.500,0,1.000,0,5.000,0
"05/06/08","20:09:25",131.000,"cc",28264.721,6,0.100,106.000,0.200,24.000,0.300,1.000,0.500,0,1.000,0,5.000,0
"05/06/08","20:09:31",148.000,"cc",28234.225,6,0.100,112.000,0.200,36.000,0.300,0,0.500,0,1.000,0,5.000,0
"05/06/08","20:09:37",133.000,"cc",28379.207,6,0.100,105.000,0.200,25.000,0.300,0,0.500,2.000,1.000,1.000,5.000,0
"05/06/08","20:09:43",145.000,"cc",28331.576,6,0.100,108.000,0.200,35.000,0.300,2.000,0.500,0,1.000,0,5.000,0
"05/06/08","20:09:49",151.000,"cc",28322.869,6,0.100,119.000,0.200,32.000,0.300,0,0.500,0,1.000,0,5.000,0
"05/06/08","20:09:55",136.000,"cc",28323.914,6,0.100,107.000,0.200,27.000,0.300,2.000,0.500,0,1.000,0,5.000,0
"05/06/08","20:10:01",133.000,"cc",28335.789,6,0.100,109.000,0.200,23.000,0.300,1.000,0.500,0,1.000,0,5.000,0
"05/06/08","20:10:07",139.000,"cc",28338.432,6,0.100,107.000,0.200,30.000,0.300,2.000,0.500,0,1.000,0,5.000,0
"05/06/08","20:10:13",124.000,"cc",28317.645,6,0.100,101.000,0.200,20.000,0.300,3.000,0.500,0,1.000,0,5.000,0
"05/06/08","20:10:19",130.000,"cc",28332.065,6,0.100,104.000,0.200,23.000,0.300,2.000,0.500,1.000,1.000,0,5.000,0
"05/06/08","20:10:25",152.000,"cc",28304.897,6,0.100,124.000,0.200,28.000,0.300,0,0.500,0,1.000,0,5.000,0
"05/06/08","20:10:31",135.000,"cc",28254.227,6,0.100,104.000,0.200,28.000,0.300,3.000,0.500,0,1.000,0,5.000,0
"05/06/08","20:10:37",1592.000,"cc",28018.139,6,0.100,1060.000,0.200,345.000,0.300,104.000,0.500,36.000,1.000,16.000,5.000,31.000
"05/06/08","20:10:43",228.000,"cc",28352.807,6,0.100,165.000,0.200,48.000,0.300,11.000,0.500,4.000,1.000,0,5.000,0
"05/06/08","20:10:49",169.000,"cc",28503.223,6,0.100,128.000,0.200,36.000,0.300,4.000,0.500,1.000,1.000,0,5.000,0
"05/06/08","20:10:55",146.000,"cc",28453.092,6,0.100,120.000,0.200,23.000,0.300,3.000,0.500,0,1.000,0,5.000,0
"05/06/08","20:11:01",134.000,"cc",28310.074,6,0.100,101.000,0.200,30.000,0.300,2.000,0.500,0,1.000,1.000,5.000,0
"05/06/08","20:11:07",152.000,"cc",28354.320,6,0.100,109.000,0.200,39.000,0.300,3.000,0.500,1.000,1.000,0,5.000,0
"05/06/08","20:11:13",136.000,"cc",28276.336,6,0.100,103.000,0.200,33.000,0.300,0,0.500,0,1.000,0,5.000,0
"05/06/08","20:11:19",154.000,"cc",28310.856,6,0.100,121.000,0.200,32.000,0.300,1.000,0.500,0,1.000,0,5.000,0
"05/06/08","20:11:25",134.000,"cc",28305.945,6,0.100,109.000,0.200,24.000,0.300,1.000,0.500,0,1.000,0,5.000,0
"05/06/08","20:11:31",153.000,"cc",28333.633,6,0.100,119.000,0.200,32.000,0.300,2.000,0.500,0,1.000,0,5.000,0
"05/06/08","20:11:37",139.000,"cc",28340.824,6,0.100,109.000,0.200,28.000,0.300,2.000,0.500,0,1.000,0,5.000,0
"05/06/08","20:11:43",132.000,"cc",28279.283,6,0.100,106.000,0.200,25.000,0.300,0,0.500,0,1.000,1.000,5.000,0
"05/06/08","20:11:49",142.000,"cc",28391.045,6,0.100,114.000,0.200,24.000,0.300,4.000,0.500,0,1.000,0,5.000,0
"05/06/08","20:11:55",135.000,"cc",28330.836,6,0.100,113.000,0.200,19.000,0.300,2.000,0.500,1.000,1.000,0,5.000,0
"05/06/08","20:12:01",138.000,"cc",28324.031,6,0.100,109.000,0.200,28.000,0.300,1.000,0.500,0,1.000,0,5.000,0
"05/06/08","20:12:07",148.000,"cc",28311.397,6,0.100,114.000,0.200,32.000,0.300,2.000,0.500,0,1.000,0,5.000,0
"05/06/08","20:12:13",144.000,"cc",28270.840,6,0.100,117.000,0.200,25.000,0.300,2.000,0.500,0,1.000,0,5.000,0
"05/06/08","20:12:19",144.000,"cc",28294.527,6,0.100,108.000,0.200,34.000,0.300,2.000,0.500,0,1.000,0,5.000,0
"05/06/08","20:12:25",147.000,"cc",28391.152,6,0.100,110.000,0.200,37.000,0.300,0,0.500,0,1.000,0,5.000,0
"05/06/08","20:12:31",140.000,"cc",28255.482,6,0.100,121.000,0.200,19.000,0.300,0,0.500,0,1.000,0,5.000,0
"05/06/08","20:12:37",129.000,"cc",28282.420,6,0.100,106.000,0.200,19.000,0.300,3.000,0.500,1.000,1.000,0,5.000,0
"05/06/08","20:12:43",155.000,"cc",28428.893,6,0.100,130.000,0.200,23.000,0.300,1.000,0.500,0,1.000,1.000,5.000,0
"05/06/08","20:12:49",140.000,"cc",28248.522,6,0.100,104.000,0.200,34.000,0.300,1.000,0.500,0,1.000,1.000,5.000,0
"05/06/08","20:12:55",143.000,"cc",28312.186,6,0.100,113.000,0.200,29.000,0.300,1.000,0.500,0,1.000,0,5.000,0
"05/06/08","20:13:01",122.000,"cc",28295.801,6,0.100,101.000,0.200,20.000,0.300,1.000,0.500,0,1.000,0,5.000,0
"05/06/08","20:13:07",147.000,"cc",28276.811,6,0.100,115.000,0.200,32.000,0.300,0,0.500,0,1.000,0,5.000,0
"05/06/08","20:13:13",173.000,"cc",28376.709,6,0.100,131.000,0.200,39.000,0.300,2.000,0.500,0,1.000,1.000,5.000,0
"05/06/08","20:13:19",123.000,"cc",28369.012,6,0.100,99.000,0.200,22.000,0.300,1.000,0.500,1.000,1.000,0,5.000,0
"05/06/08","20:13:25",120.000,"cc",28311.635,6,0.100,95.000,0.200,23.000,0.300,1.000,0.500,0,1.000,1.000,5.000,0
"05/06/08","20:13:31",138.000,"cc",28373.504,6,0.100,115.000,0.200,23.000,0.300,0,0.500,0,1.000,0,5.000,0
"05/06/08","20:13:37",137.000,"cc",28310.693,6,0.100,112.000,0.200,23.000,0.300,2.000,0.500,0,1.000,0,5.000,0
"05/06/08","20:13:43",137.000,"cc",28284.412,6,0.100,112.000,0.200,22.000,0.300,0,0.500,1.000,1.000,2.000,5.000,0
"05/06/08","20:13:49",120.000,"cc",28303.348,6,0.100,88.000,0.200,31.000,0.300,0,0.500,1.000,1.000,0,5.000,0
"05/06/08","20:13:55",123.000,"cc",28299.818,6,0.100,99.000,0.200,24.000,0.300,0,0.500,0,1.000,0,5.000,0
"05/06/08","20:14:01",133.000,"cc",28331.385,6,0.100,105.000,0.200,27.000,0.300,1.000,0.500,0,1.000,0,5.000,0
"05/06/08","20:14:07",131.000,"cc",28253.803,6,0.100,102.000,0.200,25.000,0.300,2.000,0.500,1.000,1.000,1.000,5.000,0
"05/06/08","20:14:13",139.000,"cc",28348.961,6,0.100,117.000,0.200,22.000,0.300,0,0.500,0,1.000,0,5.000,0
"05/06/08","20:14:19",116.000,"cc",28350.660,6,0.100,98.000,0.200,18.000,0.300,0,0.500,0,1.000,0,5.000,0
"05/06/08","20:14:25",142.000,"cc",28347.908,6,0.100,115.000,0.200,23.000,0.300,4.000,0.500,0,1.000,0,5.000,0
"05/06/08","20:14:31",134.000,"cc",28338.453,6,0.100,107.000,0.200,25.000,0.300,2.000,0.500,0,1.000,0,5.000,0
"05/06/08","20:14:37",123.000,"cc",28280.877,6,0.100,100.000,0.200,22.000,0.300,1.000,0.500,0,1.000,0,5.000,0
"05/06/08","20:14:43",145.000,"cc",28320.311,6,0.100,118.000,0.200,26.000,0.300,1.000,0.500,0,1.000,0,5.000,0
"05/06/08","20:14:49",135.000,"cc",28309.301,6,0.100,96.000,0.200,35.000,0.300,4.000,0.500,0,1.000,0,5.000,0
"05/06/08","20:14:55",134.000,"cc",28332.330,6,0.100,110.000,0.200,24.000,0.300,0,0.500,0,1.000,0,5.000,0
"05/06/08","20:15:01",113.000,"cc",28337.598,6,0.100,87.000,0.200,26.000,0.300,0,0.500,0,1.000,0,5.000,0
"05/06/08","20:15:07",154.000,"cc",28345.543,6,0.100,129.000,0.200,24.000,0.300,1.000,0.500,0,1.000,0,5.000,0
"05/06/08","20:15:13",146.000,"cc",28307.861,6,0.100,129.000,0.200,16.000,0.300,1.000,0.500,0,1.000,0,5.000,0
"05/06/08","20:15:19",144.000,"cc",28305.398,6,0.100,117.000,0.200,26.000,0.300,0,0.500,1.000,1.000,0,5.000,0
"05/06/08","20:15:25",155.000,"cc",28304.453,6,0.100,134.000,0.200,20.000,0.300,1.000,0.500,0,1.000,0,5.000,0
"05/06/08","20:15:31",137.000,"cc",28351.596,6,0.100,115.000,0.200,22.000,0.300,0,0.500,0,1.000,0,5.000,0
"05/06/08","20:15:37",120.000,"cc",28345.662,6,0.100,105.000,0.200,14.000,0.300,1.000,0.500,0,1.000,0,5.000,0
"05/06/08","20:15:43",129.000,"cc",28227.606,6,0.100,111.000,0.200,18.000,0.300,0,0.500,0,1.000,0,5.000,0
"05/06/08","20:15:49",138.000,"cc",28288.815,6,0.100,113.000,0.200,23.000,0.300,2.000,0.500,0,1.000,0,5.000,0
"05/06/08","20:15:55",149.000,"cc",28253.865,6,0.100,124.000,0.200,23.000,0.300,2.000,0.500,0,1.000,0,5.000,0
"05/06/08","20:16:01",133.000,"cc",28337.906,6,0.100,109.000,0.200,23.000,0.300,1.000,0.500,0,1.000,0,5.000,0
"05/06/08","20:16:07",142.000,"cc",28352.977,6,0.100,111.000,0.200,29.000,0.300,2.000,0.500,0,1.000,0,5.000,0
"05/06/08","20:16:13",141.000,"cc",28320.262,6,0.100,106.000,0.200,33.000,0.300,1.000,0.500,1.000,1.000,0,5.000,0
"05/06/08","20:16:19",151.000,"cc",28307.273,6,0.100,113.000,0.200,37.000,0.300,1.000,0.500,0,1.000,0,5.000,0
"05/06/08","20:16:25",120.000,"cc",28277.281,6,0.100,95.000,0.200,24.000,0.300,1.000,0.500,0,1.000,0,5.000,0
"05/06/08","20:16:31",139.000,"cc",28284.498,6,0.100,120.000,0.200,18.000,0.300,1.000,0.500,0,1.000,0,5.000,0
"05/06/08","20:16:37",122.000,"cc",28413.680,6,0.100,101.000,0.200,19.000,0.300,2.000,0.500,0,1.000,0,5.000,0
"05/06/08","20:16:43",134.000,"cc",28299.340,6,0.100,109.000,0.200,24.000,0.300,1.000,0.500,0,1.000,0,5.000,0
"05/06/08","20:16:49",141.000,"cc",28286.111,6,0.100,107.000,0.200,32.000,0.300,1.000,0.500,1.000,1.000,0,5.000,0
"05/06/08","20:16:55",124.000,"cc",28277.070,6,0.100,103.000,0.200,21.000,0.300,0,0.500,0,1.000,0,5.000,0
"05/06/08","20:17:01",130.000,"cc",28320.147,6,0.100,103.000,0.200,27.000,0.300,0,0.500,0,1.000,0,5.000,0
"05/06/08","20:17:07",130.000,"cc",28366.523,6,0.100,112.000,0.200,17.000,0.300,1.000,0.500,0,1.000,0,5.000,0
"05/06/08","20:17:13",143.000,"cc",28258.275,6,0.100,111.000,0.200,28.000,0.300,3.000,0.500,0,1.000,1.000,5.000,0
"05/06/08","20:17:19",120.000,"cc",28400.180,6,0.100,99.000,0.200,20.000,0.300,1.000,0.500,0,1.000,0,5.000,0
"05/06/08","20:17:25",149.000,"cc",28311.815,6,0.100,119.000,0.200,28.000,0.300,1.000,0.500,1.000,1.000,0,5.000,0
"05/06/08","20:17:31",132.000,"cc",28316.836,6,0.100,102.000,0.200,30.000,0.300,0,0.500,0,1.000,0,5.000,0
"05/06/08","20:17:37",161.000,"cc",28316.719,6,0.100,120.000,0.200,40.000,0.300,1.000,0.500,0,1.000,0,5.000,0
"05/06/08","20:17:43",124.000,"cc",28270.088,6,0.100,102.000,0.200,20.000,0.300,2.000,0.500,0,1.000,0,5.000,0
"05/06/08","20:17:49",150.000,"cc",28250.604,6,0.100,113.000,0.200,36.000,0.300,0,0.500,1.000,1.000,0,5.000,0
"05/06/08","20:17:55",137.000,"cc",28342.315,6,0.100,106.000,0.200,28.000,0.300,3.000,0.500,0,1.000,0,5.000,0
"05/06/08","20:18:01",150.000,"cc",28377.264,6,0.100,120.000,0.200,27.000,0.300,1.000,0.500,2.000,1.000,0,5.000,0
"05/06/08","20:18:07",133.000,"cc",28335.762,6,0.100,112.000,0.200,20.000,0.300,1.000,0.500,0,1.000,0,5.000,0
"05/06/08","20:18:13",159.000,"cc",28289.160,6,0.100,136.000,0.200,22.000,0.300,1.000,0.500,0,1.000,0,5.000,0
"05/06/08","20:18:19",160.000,"cc",28366.080,6,0.100,124.000,0.200,34.000,0.300,1.000,0.500,1.000,1.000,0,5.000,0
"05/06/08","20:18:25",128.000,"cc",28267.309,6,0.100,111.000,0.200,17.000,0.300,0,0.500,0,1.000,0,5.000,0
"05/06/08","20:18:31",129.000,"cc",28347.604,6,0.100,102.000,0.200,27.000,0.300,0,0.500,0,1.000,0,5.000,0
"05/06/08","20:18:37",158.000,"cc",28306.295,6,0.100,125.000,0.200,30.000,0.300,2.000,0.500,1.000,1.000,0,5.000,0
"05/06/08","20:18:43",128.000,"cc",28368.072,6,0.100,104.000,0.200,24.000,0.300,0,0.500,0,1.000,0,5.000,0
"05/06/08","20:18:49",164.000,"cc",28345.826,6,0.100,134.000,0.200,28.000,0.300,1.000,0.500,0,1.000,1.000,5.000,0
"05/06/08","20:18:55",126.000,"cc",28359.482,6,0.100,107.000,0.200,19.000,0.300,0,0.500,0,1.000,0,5.000,0
"05/06/08","20:19:01",137.000,"cc",28323.565,6,0.100,112.000,0.200,24.000,0.300,1.000,0.500,0,1.000,0,5.000,0
"05/06/08","20:19:07",143.000,"cc",28313.223,6,0.100,120.000,0.200,22.000,0.300,1.000,0.500,0,1.000,0,5.000,0
"05/06/08","20:19:13",117.000,"cc",28259.336,6,0.100,98.000,0.200,18.000,0.300,1.000,0.500,0,1.000,0,5.000,0
"05/06/08","20:19:19",138.000,"cc",28372.070,6,0.100,102.000,0.200,36.000,0.300,0,0.500,0,1.000,0,5.000,0
"05/06/08","20:19:25",133.000,"cc",28275.455,6,0.100,111.000,0.200,21.000,0.300,1.000,0.500,0,1.000,0,5.000,0
"05/06/08","20:19:31",123.000,"cc",28284.461,6,0.100,109.000,0.200,13.000,0.300,0,0.500,1.000,1.000,0,5.000,0
"05/06/08","20:19:37",142.000,"cc",28366.434,6,0.100,107.000,0.200,34.000,0.300,1.000,0.500,0,1.000,0,5.000,0
"05/06/08","20:19:43",129.000,"cc",28334.643,6,0.100,108.000,0.200,20.000,0.300,1.000,0.500,0,1.000,0,5.000,0
"05/06/08","20:19:49",150.000,"cc",28309.354,6,0.100,118.000,0.200,31.000,0.300,0,0.500,0,1.000,1.000,5.000,0
"05/06/08","20:19:55",121.000,"cc",28346.479,6,0.100,101.000,0.200,19.000,0.300,1.000,0.500,0,1.000,0,5.000,0
"05/06/08","20:20:01",154.000,"cc",28251.182,6,0.100,135.000,0.200,17.000,0.300,1.000,0.500,0,1.000,1.000,5.000,0
"05/06/08","20:20:07",160.000,"cc",28316.861,6,0.100,126.000,0.200,34.000,0.300,0,0.500,0,1.000,0,5.000,0
"05/06/08","20:20:13",131.000,"cc",28311.963,6,0.100,115.000,0.200,14.000,0.300,2.000,0.500,0,1.000,0,5.000,0
"05/06/08","20:20:19",145.000,"cc",28380.484,6,0.100,109.000,0.200,35.000,0.300,1.000,0.500,0,1.000,0,5.000,0